Flag for Germany Weather past 2 weeks in Wittenberge, Mecklenburg-Western Pomerania, Germany

Now
54 °F

Light rain. Overcast.


Feels Like: 54 °F
Forecast: 49 / 63 °F
Wind: 2 mph from Southwest

Location: Marnitz

Current Time: Apr 25, 2015 at 11:32:14 AM

Latest Report: Apr 25, 2015 at 11:00 AM


Visibility: 4 mi

Pressure: 29.75 "Hg

Humidity: 85%

Dew point: 49 °F

Location of WittenbergeLocation

Historic Weather in Wittenberge — Graph

°F

Wittenberge temperature yesterday

Maximum temperature yesterday: 66 °F (at 6:00 PM)
Minimum temperature yesterday: 41 °F (at 5:00 AM)
Average temperature yesterday: 52 °F

Past Weeks' High & Low Weather Summary

 TemperatureHumidityPressure
High71 °F (Apr 15, 3:00 PM)100% (Apr 18, 6:00 AM)30.37 "Hg (Apr 18, 6:00 AM)
Low31 °F (Apr 18, 6:00 AM)25% (Apr 21, 1:00 PM)29.74 "Hg (Apr 25, 8:00 AM)
Average50 °F66%30.12 "Hg
* Reported Apr 10 10:00 AM — Apr 25 10:00 AM, Wittenberge, Weather by CustomWeather, © 2015

Note: Actual official high and low records may vary slightly from our data, if they occured in-between our weather recording intervals... More about our weather records

Advertising

Wittenberge weather history for previous 24 hours

 ConditionsComfort  
Time TempWeatherWind HumidityBarometerVisibility
10:00 AM
Sat, Apr 25
53 °FLight rain. Fog.6 mph86%29.76 "Hg3 mi
9:00 AM57 °FOvercast.5 mph55%29.74 "Hg9 mi
8:00 AM56 °FOvercast.5 mph57%29.74 "Hg7 mi
7:00 AM55 °FPartly sunny.5 mph57%29.74 "Hg6 mi
6:00 AM53 °FOvercast.3 mph62%29.74 "Hg5 mi
5:00 AM51 °FClear.3 mph65%29.76 "Hg4 mi
3:00 AM48 °FPassing clouds.3 mph71%29.78 "Hg4 mi
1:00 AM50 °FClear.3 mph64%29.80 "Hg6 mi
12:00 AM48 °FClear.2 mph70%29.81 "Hg5 mi
11:00 PM
Fri, Apr 24
51 °FPassing clouds.3 mph63%29.81 "Hg6 mi
10:00 PM52 °FClear.2 mph63%29.81 "Hg6 mi
9:00 PM56 °FPassing clouds.2 mph54%29.81 "Hg8 mi
8:00 PM63 °FOvercast.2 mph40%29.80 "Hg10 mi
7:00 PM65 °FPassing clouds.3 mph36%29.81 "Hg11 mi
6:00 PM66 °FScattered clouds.3 mph35%29.81 "Hg11 mi
5:00 PM66 °FOvercast.3 mph39%29.83 "Hg12 mi
4:00 PM64 °FPartly sunny.2 mph45%29.85 "Hg9 mi
3:00 PM64 °FPassing clouds.3 mph48%29.86 "Hg9 mi
2:00 PM61 °FPartly sunny.3 mph54%29.88 "Hg7 mi
1:00 PM59 °FPassing clouds.3 mph59%29.89 "Hg8 mi
12:00 PM57 °FPassing clouds.5 mph64%29.92 "Hg7 mi
11:00 AM51 °FPartly sunny.3 mph79%29.94 "Hg7 mi
Weather by CustomWeather, © 2015

See weather overviewHow to use our weather pages